When you browse on this site, cookies collect data to enhance your experience and personalize the content and advertising you see.
Visit our Privacy Policy to learn more. By continuing to use the site, you agree to this use of cookies and data.
  • In Hungary
  • List of Countries
  • For 7 days
  • Water Temperature
  • Satellite Maps
  • Weather Map
  • News
  • Weather Widgets
  • user-avatar
    Login

    Hourly Weather Acton

    Today, 17 June, Monday

    Time Temperature Precipitation Wind Pressure Humidity
    00:00 +19°C° 0 mm 1 mps 751 mmHg 97%
    01:00 +18°C° 0 mm 1 mps 751 mmHg 97%
    02:00 +18°C° 0 mm 1 mps 751 mmHg 97%
    03:00 +18°C° 0 mm 1 mps 752 mmHg 97%
    04:00 +18°C° 0 mm 1 mps 752 mmHg 96%
    05:00 +19°C° 0 mm 1 mps 752 mmHg 91%
    06:00 +20°C° 0 mm 1 mps 753 mmHg 86%
    07:00 +20°C° 0 mm 1 mps 754 mmHg 81%
    08:00 +23°C° 0 mm 1 mps 754 mmHg 70%
    09:00 +25°C° 0 mm 1 mps 754 mmHg 60%
    10:00 +27°C° 0 mm 1 mps 754 mmHg 49%
    11:00 +27°C° 0 mm 1 mps 754 mmHg 47%
    12:00 +28°C° 0 mm 1 mps 754 mmHg 44%
    13:00 +28°C° 0 mm 2 mps 755 mmHg 42%
    14:00 +28°C° 0 mm 2 mps 754 mmHg 42%
    15:00 +27°C° 0 mm 2 mps 754 mmHg 43%
    16:00 +27°C° 0 mm 2 mps 754 mmHg 44%
    17:00 +25°C° 0 mm 2 mps 754 mmHg 55%
    18:00 +23°C° 0 mm 2 mps 754 mmHg 66%
    19:00 +20°C° 0 mm 2 mps 755 mmHg 77%
    20:00 +20°C° 0 mm 2 mps 755 mmHg 81%
    21:00 +19°C° 0 mm 2 mps 755 mmHg 86%
    22:00 +19°C° 0 mm 2 mps 755 mmHg 90%
    23:00 +18°C° 0 mm 2 mps 755 mmHg 92%

    Tomorrow, 18 June, Tuesday

    Time Temperature Precipitation Wind Pressure Humidity
    00:00 +19°C° 0 mm 1 mps 755 mmHg 94%
    01:00 +18°C° 0 mm 1 mps 755 mmHg 96%
    02:00 +18°C° 0 mm 1 mps 755 mmHg 96%
    03:00 +18°C° 0 mm 1 mps 754 mmHg 96%
    04:00 +16°C° 0 mm 0 mps 754 mmHg 96%
    05:00 +17°C° 0.1 mm 0 mps 754 mmHg 95%
    06:00 +19°C° 0.1 mm 1 mps 754 mmHg 93%
    07:00 +20°C° 0.1 mm 1 mps 755 mmHg 91%
    08:00 +20°C° 0.2 mm 1 mps 754 mmHg 92%
    09:00 +20°C° 0.2 mm 2 mps 754 mmHg 92%
    10:00 +20°C° 0.2 mm 2 mps 754 mmHg 93%
    11:00 +20°C° 0.1 mm 2 mps 754 mmHg 90%
    12:00 +20°C° 0.1 mm 2 mps 754 mmHg 88%
    13:00 +21°C° 0.1 mm 2 mps 754 mmHg 85%
    14:00 +21°C° 0 mm 2 mps 753 mmHg 84%
    15:00 +21°C° 0 mm 2 mps 753 mmHg 82%
    16:00 +23°C° 0 mm 2 mps 753 mmHg 81%
    17:00 +21°C° 0 mm 2 mps 753 mmHg 84%
    18:00 +20°C° 0 mm 2 mps 753 mmHg 86%
    19:00 +21°C° 0 mm 1 mps 753 mmHg 89%
    20:00 +20°C° 0 mm 1 mps 753 mmHg 91%
    21:00 +19°C° 0 mm 1 mps 753 mmHg 93%
    22:00 +18°C° 0 mm 1 mps 753 mmHg 95%
    23:00 +18°C° 0 mm 1 mps 752 mmHg 95%

    Day after tomorrow, 19 June, Wednesday

    Time Temperature Precipitation Wind Pressure Humidity
    00:00 +18°C° 0 mm 1 mps 752 mmHg 95%
    01:00 +18°C° 0 mm 1 mps 752 mmHg 95%
    02:00 +18°C° 0.2 mm 1 mps 752 mmHg 96%
    03:00 +16°C° 0.2 mm 0 mps 751 mmHg 96%
    04:00 +16°C° 0.2 mm 0 mps 751 mmHg 96%
    05:00 +17°C° 0.5 mm 0 mps 751 mmHg 96%
    06:00 +17°C° 0.5 mm 0 mps 751 mmHg 96%
    07:00 +19°C° 0.5 mm 1 mps 751 mmHg 95%
    08:00 +19°C° 0.4 mm 1 mps 751 mmHg 95%
    09:00 +19°C° 0.4 mm 1 mps 751 mmHg 95%
    10:00 +19°C° 0.4 mm 1 mps 751 mmHg 95%
    11:00 +19°C° 0.2 mm 2 mps 750 mmHg 92%
    12:00 +19°C° 0.2 mm 2 mps 750 mmHg 90%
    13:00 +20°C° 0.2 mm 2 mps 750 mmHg 87%
    14:00 +20°C° 0 mm 2 mps 750 mmHg 85%
    15:00 +20°C° 0 mm 2 mps 750 mmHg 83%
    16:00 +20°C° 0 mm 2 mps 749 mmHg 81%
    17:00 +20°C° 0 mm 2 mps 749 mmHg 84%
    18:00 +19°C° 0 mm 2 mps 750 mmHg 87%
    19:00 +19°C° 0 mm 1 mps 750 mmHg 91%
    20:00 +19°C° 0 mm 1 mps 750 mmHg 92%
    21:00 +19°C° 0 mm 1 mps 750 mmHg 93%
    22:00 +18°C° 0 mm 1 mps 750 mmHg 94%
    23:00 +18°C° 0 mm 1 mps 749 mmHg 94%

    20 June, Thursday

    Time Temperature Precipitation Wind Pressure Humidity
    00:00 +16°C° 0 mm 0 mps 749 mmHg 94%
    01:00 +16°C° 0 mm 0 mps 749 mmHg 94%
    02:00 +16°C° 0 mm 0 mps 748 mmHg 94%
    03:00 +18°C° 0 mm 1 mps 748 mmHg 94%
    04:00 +18°C° 0 mm 1 mps 748 mmHg 93%
    05:00 +19°C° 0 mm 1 mps 749 mmHg 90%
    06:00 +20°C° 0 mm 1 mps 749 mmHg 87%
    07:00 +21°C° 0 mm 1 mps 749 mmHg 84%
    08:00 +23°C° 0 mm 1 mps 749 mmHg 78%
    09:00 +25°C° 0 mm 1 mps 749 mmHg 71%
    10:00 +27°C° 0 mm 1 mps 748 mmHg 65%
    11:00 +27°C° 0.1 mm 1 mps 748 mmHg 65%
    12:00 +27°C° 0.1 mm 1 mps 748 mmHg 65%
    13:00 +27°C° 0.1 mm 1 mps 748 mmHg 65%
    14:00 +26°C° 0.6 mm 1 mps 748 mmHg 72%
    15:00 +24°C° 0.6 mm 2 mps 747 mmHg 79%
    16:00 +23°C° 0.6 mm 2 mps 747 mmHg 86%
    17:00 +21°C° 1 mm 2 mps 747 mmHg 89%
    18:00 +20°C° 1 mm 2 mps 747 mmHg 92%
    19:00 +19°C° 1 mm 2 mps 747 mmHg 95%
    20:00 +18°C° 3.1 mm 2 mps 747 mmHg 96%
    21:00 +18°C° 3.1 mm 2 mps 747 mmHg 97%
    22:00 +18°C° 3.1 mm 2 mps 747 mmHg 98%
    23:00 +18°C° 7.3 mm 2 mps 746 mmHg 98%

    21 June, Friday

    Time Temperature Precipitation Wind Pressure Humidity
    00:00 +17°C° 7.3 mm 3 mps 746 mmHg 98%
    01:00 +17°C° 7.3 mm 3 mps 746 mmHg 98%
    02:00 +17°C° 4.8 mm 3 mps 745 mmHg 98%
    03:00 +17°C° 4.8 mm 3 mps 745 mmHg 98%
    04:00 +17°C° 4.8 mm 3 mps 745 mmHg 98%
    05:00 +16°C° 0.2 mm 3 mps 746 mmHg 97%
    06:00 +16°C° 0.2 mm 3 mps 746 mmHg 97%
    07:00 +16°C° 0.2 mm 3 mps 746 mmHg 97%
    08:00 +17°C° 0.1 mm 3 mps 746 mmHg 96%
    09:00 +17°C° 0.1 mm 3 mps 747 mmHg 95%
    10:00 +17°C° 0.1 mm 3 mps 747 mmHg 94%
    11:00 +17°C° 0.3 mm 2 mps 748 mmHg 95%
    12:00 +17°C° 0.3 mm 2 mps 748 mmHg 95%
    13:00 +17°C° 0.3 mm 2 mps 748 mmHg 96%
    14:00 +17°C° 0.1 mm 2 mps 748 mmHg 96%
    15:00 +17°C° 0.1 mm 2 mps 749 mmHg 96%
    16:00 +17°C° 0.1 mm 2 mps 749 mmHg 96%
    17:00 +17°C° 0.3 mm 2 mps 750 mmHg 96%
    18:00 +17°C° 0.3 mm 2 mps 750 mmHg 96%
    19:00 +17°C° 0.3 mm 2 mps 751 mmHg 96%
    20:00 +17°C° 0.1 mm 2 mps 751 mmHg 97%
    21:00 +16°C° 0.1 mm 2 mps 751 mmHg 97%
    22:00 +16°C° 0.1 mm 2 mps 752 mmHg 97%
    23:00 +16°C° 0 mm 2 mps 752 mmHg 96%

    22 June, Saturday

    Time Temperature Precipitation Wind Pressure Humidity
    00:00 +15°C° 0 mm 1 mps 752 mmHg 96%
    01:00 +14°C° 0 mm 1 mps 752 mmHg 95%
    02:00 +14°C° 0 mm 1 mps 752 mmHg 95%
    03:00 +14°C° 0 mm 1 mps 752 mmHg 94%
    04:00 +13°C° 0 mm 1 mps 752 mmHg 94%
    05:00 +15°C° 0 mm 1 mps 753 mmHg 91%
    06:00 +18°C° 0 mm 1 mps 753 mmHg 87%
    07:00 +19°C° 0 mm 1 mps 753 mmHg 84%
    08:00 +21°C° 0 mm 2 mps 754 mmHg 70%
    09:00 +24°C° 0 mm 2 mps 754 mmHg 55%
    10:00 +27°C° 0 mm 2 mps 754 mmHg 41%
    11:00 +27°C° 0 mm 3 mps 754 mmHg 39%
    12:00 +28°C° 0 mm 3 mps 754 mmHg 37%
    13:00 +28°C° 0 mm 3 mps 754 mmHg 35%
    14:00 +27°C° 0 mm 3 mps 754 mmHg 41%
    15:00 +26°C° 0 mm 2 mps 754 mmHg 46%
    16:00 +25°C° 0 mm 2 mps 754 mmHg 52%
    17:00 +24°C° 0 mm 2 mps 754 mmHg 58%
    18:00 +21°C° 0 mm 2 mps 755 mmHg 64%
    19:00 +21°C° 0 mm 1 mps 755 mmHg 71%
    20:00 +20°C° 0 mm 1 mps 755 mmHg 74%
    21:00 +18°C° 0 mm 1 mps 756 mmHg 78%
    22:00 +15°C° 0 mm 0 mps 756 mmHg 81%
    23:00 +16°C° 0 mm 1 mps 756 mmHg 82%
    Show more